sat.trackr.live / text

‹ back to catalog

STARLINK-11432 [DTC]

NORAD 62882 · 2025-024D

PAYLOAD ACTIVE UNKNOWN

§ Identity

Operator
Country
US
Launch date
2025-02-04
Launch site
AFETR
Launch vehicle
Mass (kg)
RCS (m²)

Purposes: comms

External: N2YO · Heavens-Above · Gunter

§ Orbital elements

Epoch: 2026-05-25T04:14:56.186880Z

Period
91.66 min
Inclination
43.0008°
Eccentricity
0.0003113
Mean motion
15.70944765 rev/d
Perigee alt
354.1 km
Apogee alt
358.3 km
Semi-major
6,734.3 km
B*
1.6740e-3
RAAN
80.6346°
Arg perigee
269.0725°
Mean anomaly
90.9786°
Rev number
7,549

§ Raw data

STARLINK-11432 [DTC]1 62882U 25024D   26145.17703920  .00221148  00000+0  16740-2 0  99932 62882  43.0008  80.6346 0003113 269.0725  90.9786 15.70944765 75491

JSON: /api/v1/satellites/62882 · /tle

For live sub-satellite position, see the globe view (requires WebGL).

§ Visibility from observer

Set your observer location to see the next 7 days of passes ≥ 10°. The values pass through the URL so the page stays shareable.

No JS? Fill the form by hand. The geolocation button needs JavaScript.